Weather History for KBFI - October, 2013

Change the Weather History Date:

Thursday, October 3, 2013

  Actual Average Record
Temperature  
Mean Temperature 52 °F -  
Max Temperature 59 °F 64 °F 80 °F (1993)
Min Temperature 48 °F 47 °F 39 °F (1949)
Degree Days  
Heating Degree Days 12    
Growing Degree Days 2 (Base 50)    
Moisture  
Dew Point 46 °F    
Average Humidity 77    
Maximum Humidity 86    
Minimum Humidity 58    
Precipitation  
Precipitation 0.02 in - - ()
Sea Level Pressure  
Sea Level Pressure 30.32 in    
Wind  
Wind Speed 3 mph (SE)    
Max Wind Speed 6 mph    
Max Gust Speed -    
Visibility 10 miles    
Events Rain    
Averages and records for this station are not official NWS values.
T = Trace of Precipitation, MM = Missing Value Source: NWS Daily Summary

Daily Weather History Graph

Daily Weather History Graph

Search for Another Location

Airport or City:

Trip Planner

Search our weather history database for the weather conditions in past years. The results will help you decide how hot, cold, wet, or windy it might be!

Date:

Astronomy

Oct. 03, 2013 Rise Set
Actual Time 7:11 AM PDT 6:43 PM PDT
Civil Twilight 6:40 AM PDT 7:14 PM PDT
Nautical Twilight 6:05 AM PDT 7:50 PM PDT
Astronomical Twilight 5:28 AM PDT 8:26 PM PDT
Moon 5:47 AM PDT (10/3) 5:56 PM PDT (10/3)
Length of Visible Light 12h 33m
Length of Day
11h 32m
Waning Crescent, 2% of the Moon is Illuminated
Oct 3
Waning Crescent
Oct 4
New
Oct 11
First Quarter
Oct 18
Full
Oct 26
Last Quarter

Hourly Weather History & Observations

Time (PDT) Temp. Dew Point Humidity Pressure Visibility Wind Dir Wind Speed Gust Speed Precip Events Conditions
12:00 AM 51.8 °F 46.4 °F 82% 30.19 in 7.0 mi SE 4.6 mph - 0.01 in Rain Light Rain
12:23 AM 51.8 °F 46.4 °F 82% 30.19 in 10.0 mi SSE 4.6 mph - 0.02 in Rain Light Rain
12:33 AM 51.8 °F 46.4 °F 82% 30.19 in 10.0 mi SE 5.8 mph - 0.02 in   Overcast
12:53 AM 51.1 °F 46.9 °F 86% 30.20 in 10.0 mi SE 5.8 mph - 0.02 in   Overcast
1:14 AM 51.8 °F 46.4 °F 82% 30.20 in 10.0 mi SE 4.6 mph - N/A   Overcast
1:22 AM 51.8 °F 46.4 °F 82% 30.20 in 10.0 mi ESE 3.5 mph - N/A   Overcast
1:33 AM 51.8 °F 46.4 °F 82% 30.21 in 10.0 mi SE 3.5 mph - N/A   Overcast
1:53 AM 51.1 °F 46.9 °F 86% 30.22 in 10.0 mi SE 4.6 mph - N/A   Overcast
2:15 AM 51.8 °F 46.4 °F 82% 30.23 in 10.0 mi SE 5.8 mph - N/A   Overcast
2:18 AM 51.8 °F 46.4 °F 82% 30.23 in 10.0 mi SE 3.5 mph - N/A   Overcast
2:39 AM 51.8 °F 46.4 °F 82% 30.24 in 10.0 mi SE 4.6 mph - N/A   Overcast
2:53 AM 51.1 °F 46.9 °F 86% 30.24 in 10.0 mi SE 3.5 mph - N/A   Overcast
3:00 AM 51.8 °F 46.4 °F 82% 30.24 in 10.0 mi East 3.5 mph - N/A   Overcast
3:48 AM 51.8 °F 46.4 °F 82% 30.26 in 9.0 mi SE 3.5 mph - 0.00 in Rain Light Rain
3:53 AM 51.1 °F 46.9 °F 86% 30.27 in 10.0 mi SE 4.6 mph - 0.00 in   Overcast
4:00 AM 51.8 °F 46.4 °F 82% 30.26 in 10.0 mi SE 3.5 mph - N/A   Overcast
4:22 AM 51.8 °F 46.4 °F 82% 30.27 in 10.0 mi ENE 3.5 mph - N/A   Overcast
4:53 AM 51.1 °F 46.0 °F 83% 30.27 in 10.0 mi Calm Calm - N/A   Overcast
5:53 AM 51.1 °F 46.0 °F 83% 30.30 in 10.0 mi Calm Calm - N/A   Overcast
5:55 AM 51.8 °F 46.4 °F 82% 30.31 in 10.0 mi Calm Calm - N/A   Overcast
6:53 AM 51.1 °F 46.0 °F 83% 30.32 in 10.0 mi Calm Calm - N/A   Overcast
7:51 AM 51.8 °F 46.4 °F 82% 30.34 in 10.0 mi SE 3.5 mph - N/A   Overcast
7:53 AM 51.1 °F 46.9 °F 86% 30.34 in 10.0 mi SE 4.6 mph - N/A   Overcast
8:53 AM 52.0 °F 46.9 °F 83% 30.35 in 10.0 mi Calm Calm - N/A   Overcast
9:44 AM 53.6 °F 46.4 °F 77% 30.37 in 10.0 mi Calm Calm - N/A   Overcast
9:53 AM 54.0 °F 46.9 °F 77% 30.38 in 10.0 mi Calm Calm - N/A   Overcast
10:53 AM 55.9 °F 44.1 °F 64% 30.38 in 10.0 mi Variable 3.5 mph - N/A   Mostly Cloudy
11:53 AM 55.9 °F 45.0 °F 67% 30.40 in 10.0 mi Calm Calm - N/A   Overcast
12:24 PM 55.4 °F 44.6 °F 67% 30.40 in 10.0 mi NW 3.5 mph - N/A   Overcast
12:53 PM 55.9 °F 44.1 °F 64% 30.40 in 10.0 mi Calm Calm - N/A   Overcast
1:00 PM 55.4 °F 44.6 °F 67% 30.41 in 10.0 mi Calm Calm - N/A   Overcast
1:53 PM 55.9 °F 45.0 °F 67% 30.42 in 10.0 mi Variable 4.6 mph - N/A   Overcast
2:53 PM 55.9 °F 45.0 °F 67% 30.42 in 10.0 mi Calm Calm - N/A   Mostly Cloudy
3:53 PM 57.9 °F 44.1 °F 60% 30.42 in 10.0 mi Calm Calm - N/A   Overcast
4:53 PM 57.9 °F 43.0 °F 58% 30.42 in 10.0 mi Calm Calm - N/A   Mostly Cloudy
5:53 PM 57.9 °F 44.1 °F 60% 30.42 in 10.0 mi WSW 4.6 mph - N/A   Mostly Cloudy
6:53 PM 55.9 °F 42.1 °F 60% 30.43 in 10.0 mi Calm Calm - N/A   Mostly Cloudy
7:53 PM 54.0 °F 43.0 °F 66% 30.44 in 10.0 mi Calm Calm - N/A   Partly Cloudy
9:53 PM 50.0 °F 43.0 °F 77% 30.45 in 10.0 mi Calm Calm - N/A   Clear
10:53 PM 48.9 °F 43.0 °F 80% 30.45 in 10.0 mi Calm Calm - N/A   Clear
11:53 PM 48.0 °F 43.0 °F 83% 30.46 in 10.0 mi Calm Calm - N/A   Clear